Year,Month,Day,Hour,Minute,Value (Times are PST for temperature in C)
2015,04,19,00,00,8.60
2015,04,19,00,01,8.50
2015,04,19,00,02,8.50
2015,04,19,00,03,8.50
2015,04,19,00,04,8.40
2015,04,19,00,05,8.40
2015,04,19,00,06,8.30
2015,04,19,00,07,8.30
2015,04,19,00,08,8.30
2015,04,19,00,09,8.30
2015,04,19,00,10,8.30
2015,04,19,00,11,8.30
2015,04,19,00,12,8.30
2015,04,19,00,13,8.30
2015,04,19,00,14,8.30
2015,04,19,00,15,8.30
2015,04,19,00,16,8.30
2015,04,19,00,17,8.30
2015,04,19,00,18,8.20
2015,04,19,00,19,8.20
2015,04,19,00,20,8.20
2015,04,19,00,21,8.20
2015,04,19,00,22,8.20
2015,04,19,00,23,8.20
2015,04,19,00,24,8.20
2015,04,19,00,25,8.20
2015,04,19,00,26,8.20
2015,04,19,00,27,8.10
2015,04,19,00,28,8.10
2015,04,19,00,29,8.10
2015,04,19,00,30,8.10
2015,04,19,00,31,8.10
2015,04,19,00,32,8.10
2015,04,19,00,33,8.10
2015,04,19,00,34,8.00
2015,04,19,00,35,8.00
2015,04,19,00,36,8.00
2015,04,19,00,37,8.00
2015,04,19,00,38,7.90
2015,04,19,00,39,7.90
2015,04,19,00,40,7.90
2015,04,19,00,41,7.90
2015,04,19,00,42,7.90
2015,04,19,00,43,7.80
2015,04,19,00,44,7.80
2015,04,19,00,45,7.80
2015,04,19,00,46,7.80
2015,04,19,00,47,7.80
2015,04,19,00,48,7.80
2015,04,19,00,49,7.80
2015,04,19,00,50,7.80
2015,04,19,00,51,7.80
2015,04,19,00,52,7.70
2015,04,19,00,53,7.70
2015,04,19,00,54,7.70
2015,04,19,00,55,7.70
2015,04,19,00,56,7.70
2015,04,19,00,57,7.70
2015,04,19,00,58,7.70
2015,04,19,00,59,7.60
2015,04,19,01,00,7.60
2015,04,19,01,01,7.60
2015,04,19,01,02,7.60
2015,04,19,01,03,7.60
2015,04,19,01,04,7.60
2015,04,19,01,05,7.60
2015,04,19,01,06,7.50
2015,04,19,01,07,7.50
2015,04,19,01,08,7.50
2015,04,19,01,09,7.50
2015,04,19,01,10,7.50
2015,04,19,01,11,7.50
2015,04,19,01,12,7.40
2015,04,19,01,13,7.40
2015,04,19,01,14,7.40
2015,04,19,01,15,7.40
2015,04,19,01,16,7.40
2015,04,19,01,17,7.40
2015,04,19,01,18,7.40
2015,04,19,01,19,7.40
2015,04,19,01,20,7.40
2015,04,19,01,21,7.40
2015,04,19,01,22,7.40
2015,04,19,01,23,7.30
2015,04,19,01,24,7.30
2015,04,19,01,25,7.30
2015,04,19,01,26,7.30
2015,04,19,01,27,7.30
2015,04,19,01,28,7.30
2015,04,19,01,29,7.30
2015,04,19,01,30,7.30
2015,04,19,01,31,7.30
2015,04,19,01,32,7.30
2015,04,19,01,33,7.20
2015,04,19,01,34,7.20
2015,04,19,01,35,7.20
2015,04,19,01,36,7.20
2015,04,19,01,37,7.20
2015,04,19,01,38,7.20
2015,04,19,01,39,7.20
2015,04,19,01,40,7.20
2015,04,19,01,41,7.20
2015,04,19,01,42,7.20
2015,04,19,01,43,7.20
2015,04,19,01,44,7.20
2015,04,19,01,45,7.20
2015,04,19,01,46,7.20
2015,04,19,01,47,7.20
2015,04,19,01,48,7.20
2015,04,19,01,49,7.20
2015,04,19,01,50,7.20
2015,04,19,01,51,7.20
2015,04,19,01,52,7.20
2015,04,19,01,53,7.20
2015,04,19,01,54,7.20
2015,04,19,01,55,7.30
2015,04,19,01,56,7.30
2015,04,19,01,57,7.20
2015,04,19,01,58,7.20
2015,04,19,01,59,7.20
2015,04,19,02,00,7.20
2015,04,19,02,01,7.10
2015,04,19,02,02,7.10
2015,04,19,02,03,7.10
2015,04,19,02,04,7.10
2015,04,19,02,05,7.20
2015,04,19,02,06,7.20
2015,04,19,02,07,7.20
2015,04,19,02,08,7.20
2015,04,19,02,09,7.10
2015,04,19,02,10,7.10
2015,04,19,02,11,7.10
2015,04,19,02,12,7.10
2015,04,19,02,13,7.10
2015,04,19,02,14,7.10
2015,04,19,02,15,7.10
2015,04,19,02,16,7.10
2015,04,19,02,17,7.10
2015,04,19,02,18,7.00
2015,04,19,02,19,7.00
2015,04,19,02,20,6.90
2015,04,19,02,21,6.90
2015,04,19,02,22,6.90
2015,04,19,02,23,6.80
2015,04,19,02,24,6.70
2015,04,19,02,25,6.70
2015,04,19,02,26,6.60
2015,04,19,02,27,6.60
2015,04,19,02,28,6.50
2015,04,19,02,29,6.50
2015,04,19,02,30,6.40
2015,04,19,02,31,6.40
2015,04,19,02,32,6.30
2015,04,19,02,33,6.30
2015,04,19,02,34,6.30
2015,04,19,02,35,6.40
2015,04,19,02,36,6.40
2015,04,19,02,37,6.40
2015,04,19,02,38,6.50
2015,04,19,02,39,6.50
2015,04,19,02,40,6.50
2015,04,19,02,41,6.50
2015,04,19,02,42,6.60
2015,04,19,02,43,6.50
2015,04,19,02,44,6.50
2015,04,19,02,45,6.50
2015,04,19,02,46,6.50
2015,04,19,02,47,6.50
2015,04,19,02,48,6.50
2015,04,19,02,49,6.40
2015,04,19,02,50,6.40
2015,04,19,02,51,6.40
2015,04,19,02,52,6.40
2015,04,19,02,53,6.40
2015,04,19,02,54,6.40
2015,04,19,02,55,6.30
2015,04,19,02,56,6.40
2015,04,19,02,57,6.40
2015,04,19,02,58,6.40
2015,04,19,02,59,6.40
2015,04,19,03,00,6.40
2015,04,19,03,01,6.40
2015,04,19,03,02,6.40
2015,04,19,03,03,6.40
2015,04,19,03,04,6.30
2015,04,19,03,05,6.30
2015,04,19,03,06,6.30
2015,04,19,03,07,6.30
2015,04,19,03,08,6.30
2015,04,19,03,09,6.30
2015,04,19,03,10,6.20
2015,04,19,03,11,6.20
2015,04,19,03,12,6.20
2015,04,19,03,13,6.20
2015,04,19,03,14,6.10
2015,04,19,03,15,6.10
2015,04,19,03,16,6.10
2015,04,19,03,17,6.00
2015,04,19,03,18,6.00
2015,04,19,03,19,6.00
2015,04,19,03,20,6.00
2015,04,19,03,21,5.90
2015,04,19,03,22,5.90
2015,04,19,03,23,5.90
2015,04,19,03,24,5.90
2015,04,19,03,25,5.90
2015,04,19,03,26,5.90
2015,04,19,03,27,5.90
2015,04,19,03,28,5.90
2015,04,19,03,29,5.90
2015,04,19,03,30,5.90
2015,04,19,03,31,5.90
2015,04,19,03,32,5.90
2015,04,19,03,33,5.90
2015,04,19,03,34,5.90
2015,04,19,03,35,5.80
2015,04,19,03,36,5.80
2015,04,19,03,37,5.80
2015,04,19,03,38,5.80
2015,04,19,03,39,5.80
2015,04,19,03,40,5.80
2015,04,19,03,41,5.80
2015,04,19,03,42,5.80
2015,04,19,03,43,5.80
2015,04,19,03,44,5.80
2015,04,19,03,45,5.80
2015,04,19,03,46,5.80
2015,04,19,03,47,5.80
2015,04,19,03,48,5.80
2015,04,19,03,49,5.80
2015,04,19,03,50,5.70
2015,04,19,03,51,5.70
2015,04,19,03,52,5.70
2015,04,19,03,53,5.70
2015,04,19,03,54,5.70
2015,04,19,03,55,5.70
2015,04,19,03,56,5.70
2015,04,19,03,57,5.80
2015,04,19,03,58,5.80
2015,04,19,03,59,5.70
2015,04,19,04,00,5.70
2015,04,19,04,01,5.70
2015,04,19,04,02,5.70
2015,04,19,04,03,5.70
2015,04,19,04,04,5.70
2015,04,19,04,05,5.70
2015,04,19,04,06,5.70
2015,04,19,04,07,5.60
2015,04,19,04,08,5.60
2015,04,19,04,09,5.60
2015,04,19,04,10,5.70
2015,04,19,04,11,5.70
2015,04,19,04,12,5.70
2015,04,19,04,13,5.70
2015,04,19,04,14,5.70
2015,04,19,04,15,5.70
2015,04,19,04,16,5.60
2015,04,19,04,17,5.60
2015,04,19,04,18,5.60
2015,04,19,04,19,5.60
2015,04,19,04,20,5.60
2015,04,19,04,21,5.60
2015,04,19,04,22,5.60
2015,04,19,04,23,5.60
2015,04,19,04,24,5.60
2015,04,19,04,25,5.60
2015,04,19,04,26,5.60
2015,04,19,04,27,5.60
2015,04,19,04,28,5.60
2015,04,19,04,29,5.60
2015,04,19,04,30,5.60
2015,04,19,04,31,5.60
2015,04,19,04,32,5.60
2015,04,19,04,33,5.60
2015,04,19,04,34,5.50
2015,04,19,04,35,5.50
2015,04,19,04,36,5.50
2015,04,19,04,37,5.50
2015,04,19,04,38,5.40
2015,04,19,04,39,5.40
2015,04,19,04,40,5.40
2015,04,19,04,41,5.30
2015,04,19,04,42,5.30
2015,04,19,04,43,5.30
2015,04,19,04,44,5.30
2015,04,19,04,45,5.20
2015,04,19,04,46,5.20
2015,04,19,04,47,5.30
2015,04,19,04,48,5.30
2015,04,19,04,49,5.20
2015,04,19,04,50,5.30
2015,04,19,04,51,5.30
2015,04,19,04,52,5.40
2015,04,19,04,53,5.40
2015,04,19,04,54,5.40
2015,04,19,04,55,5.40
2015,04,19,04,56,5.40
2015,04,19,04,57,5.40
2015,04,19,04,58,5.50
2015,04,19,04,59,5.50
2015,04,19,05,00,5.50
2015,04,19,05,01,5.60
2015,04,19,05,02,5.60
2015,04,19,05,03,5.60
2015,04,19,05,04,5.60
2015,04,19,05,05,5.60
2015,04,19,05,06,5.60
2015,04,19,05,07,5.60
2015,04,19,05,08,5.60
2015,04,19,05,09,5.70
2015,04,19,05,10,5.70
2015,04,19,05,11,5.70
2015,04,19,05,12,5.70
2015,04,19,05,13,5.70
2015,04,19,05,14,5.70
2015,04,19,05,15,5.70
2015,04,19,05,16,5.70
2015,04,19,05,17,5.70
2015,04,19,05,18,5.70
2015,04,19,05,19,5.70
2015,04,19,05,20,5.60
2015,04,19,05,21,5.60
2015,04,19,05,22,5.60
2015,04,19,05,23,5.60
2015,04,19,05,24,5.50
2015,04,19,05,25,5.40
2015,04,19,05,26,5.40
2015,04,19,05,27,5.30
2015,04,19,05,28,5.30
2015,04,19,05,29,5.30
2015,04,19,05,30,5.30
2015,04,19,05,31,5.30
2015,04,19,05,32,5.30
2015,04,19,05,33,5.30
2015,04,19,05,34,5.40
2015,04,19,05,35,5.40
2015,04,19,05,36,5.40
2015,04,19,05,37,5.40
2015,04,19,05,38,5.40
2015,04,19,05,39,5.40
2015,04,19,05,40,5.40
2015,04,19,05,41,5.40
2015,04,19,05,42,5.40
2015,04,19,05,43,5.40
2015,04,19,05,44,5.40
2015,04,19,05,45,5.40
2015,04,19,05,46,5.40
2015,04,19,05,47,5.40
2015,04,19,05,48,5.40
2015,04,19,05,49,5.40
2015,04,19,05,50,5.40
2015,04,19,05,51,5.40
2015,04,19,05,52,5.40
2015,04,19,05,53,5.40
2015,04,19,05,54,5.40
2015,04,19,05,55,5.40
2015,04,19,05,56,5.40
2015,04,19,05,57,5.40
2015,04,19,05,58,5.40
2015,04,19,05,59,5.40
2015,04,19,06,00,5.40
2015,04,19,06,01,5.40
2015,04,19,06,02,5.30
2015,04,19,06,03,5.30
2015,04,19,06,04,5.30
2015,04,19,06,05,5.30
2015,04,19,06,06,5.30
2015,04,19,06,07,5.30
2015,04,19,06,08,5.30
2015,04,19,06,09,5.20
2015,04,19,06,10,5.20
2015,04,19,06,11,5.20
2015,04,19,06,12,5.20
2015,04,19,06,13,5.20
2015,04,19,06,14,5.20
2015,04,19,06,15,5.10
2015,04,19,06,16,5.10
2015,04,19,06,17,5.10
2015,04,19,06,18,5.10
2015,04,19,06,19,5.00
2015,04,19,06,20,5.00
2015,04,19,06,21,5.00
2015,04,19,06,22,5.00
2015,04,19,06,23,5.00
2015,04,19,06,24,5.10
2015,04,19,06,25,5.10
2015,04,19,06,26,5.10
2015,04,19,06,27,5.10
2015,04,19,06,28,5.10
2015,04,19,06,29,5.10
2015,04,19,06,30,5.10
2015,04,19,06,31,5.10
2015,04,19,06,32,5.00
2015,04,19,06,33,5.00
2015,04,19,06,34,5.00
2015,04,19,06,35,5.00
2015,04,19,06,36,5.00
2015,04,19,06,37,5.00
2015,04,19,06,38,4.90
2015,04,19,06,39,4.90
2015,04,19,06,40,4.90
2015,04,19,06,41,4.90
2015,04,19,06,42,4.90
2015,04,19,06,43,5.00
2015,04,19,06,44,5.00
2015,04,19,06,45,5.00
2015,04,19,06,46,5.00
2015,04,19,06,47,5.00
2015,04,19,06,48,5.00
2015,04,19,06,49,5.00
2015,04,19,06,50,5.00
2015,04,19,06,51,5.00
2015,04,19,06,52,5.00
2015,04,19,06,53,5.00
2015,04,19,06,54,5.00
2015,04,19,06,55,5.10
2015,04,19,06,56,5.10
2015,04,19,06,57,5.10
2015,04,19,06,58,5.10
2015,04,19,06,59,5.10
2015,04,19,07,00,5.10
2015,04,19,07,01,5.10
2015,04,19,07,02,5.10
2015,04,19,07,03,5.20
2015,04,19,07,04,5.20
2015,04,19,07,05,5.20
2015,04,19,07,06,5.20
2015,04,19,07,07,5.30
2015,04,19,07,08,5.30
2015,04,19,07,09,5.30
2015,04,19,07,10,5.40
2015,04,19,07,11,5.40
2015,04,19,07,12,5.40
2015,04,19,07,13,5.50
2015,04,19,07,14,5.50
2015,04,19,07,15,5.50
2015,04,19,07,16,5.60
2015,04,19,07,17,5.60
2015,04,19,07,18,5.70
2015,04,19,07,19,5.70
2015,04,19,07,20,5.70
2015,04,19,07,21,5.70
2015,04,19,07,22,5.80
2015,04,19,07,23,5.80
2015,04,19,07,24,5.80
2015,04,19,07,25,5.80
2015,04,19,07,26,5.80
2015,04,19,07,27,5.80
2015,04,19,07,28,5.90
2015,04,19,07,29,5.90
2015,04,19,07,30,6.00
2015,04,19,07,31,6.10
2015,04,19,07,32,6.10
2015,04,19,07,33,6.10
2015,04,19,07,34,6.10
2015,04,19,07,35,6.20
2015,04,19,07,36,6.20
2015,04,19,07,37,6.20
2015,04,19,07,38,6.20
2015,04,19,07,39,6.20
2015,04,19,07,40,6.20
2015,04,19,07,41,6.20
2015,04,19,07,42,6.30
2015,04,19,07,43,6.30
2015,04,19,07,44,6.30
2015,04,19,07,45,6.30
2015,04,19,07,46,6.30
2015,04,19,07,47,6.30
2015,04,19,07,48,6.30
2015,04,19,07,49,6.30
2015,04,19,07,50,6.30
2015,04,19,07,51,6.30
2015,04,19,07,52,6.40
2015,04,19,07,53,6.40
2015,04,19,07,54,6.40
2015,04,19,07,55,6.50
2015,04,19,07,56,6.50
2015,04,19,07,57,6.60
2015,04,19,07,58,6.70
2015,04,19,07,59,6.70
2015,04,19,08,00,6.80
2015,04,19,08,01,6.80
2015,04,19,08,02,6.80
2015,04,19,08,03,6.90
2015,04,19,08,04,6.90
2015,04,19,08,05,7.00
2015,04,19,08,06,7.10
2015,04,19,08,07,7.10
2015,04,19,08,08,7.10
2015,04,19,08,09,7.20
2015,04,19,08,10,7.20
2015,04,19,08,11,7.20
2015,04,19,08,12,7.20
2015,04,19,08,13,7.30
2015,04,19,08,14,7.30
2015,04,19,08,15,7.30
2015,04,19,08,16,7.40
2015,04,19,08,17,7.50
2015,04,19,08,18,7.60
2015,04,19,08,19,7.60
2015,04,19,08,20,7.70
2015,04,19,08,21,7.70
2015,04,19,08,22,7.80
2015,04,19,08,23,7.80
2015,04,19,08,24,7.80
2015,04,19,08,25,7.80
2015,04,19,08,26,7.90
2015,04,19,08,27,7.90
2015,04,19,08,28,8.00
2015,04,19,08,29,8.00
2015,04,19,08,30,8.10
2015,04,19,08,31,8.10
2015,04,19,08,32,8.20
2015,04,19,08,33,8.20
2015,04,19,08,34,8.20
2015,04,19,08,35,8.30
2015,04,19,08,36,8.30
2015,04,19,08,37,8.40
2015,04,19,08,38,8.40
2015,04,19,08,39,8.50
2015,04,19,08,40,8.60
2015,04,19,08,41,8.70
2015,04,19,08,42,8.80
2015,04,19,08,43,8.80
2015,04,19,08,44,8.90
2015,04,19,08,45,9.00
2015,04,19,08,46,9.10
2015,04,19,08,47,9.20
2015,04,19,08,48,9.30
2015,04,19,08,49,9.40
2015,04,19,08,50,9.50
2015,04,19,08,51,9.60
2015,04,19,08,52,9.70
2015,04,19,08,53,9.80
2015,04,19,08,54,9.80
2015,04,19,08,55,9.90
2015,04,19,08,56,10.00
2015,04,19,08,57,10.10
2015,04,19,08,58,10.20
2015,04,19,08,59,10.30
2015,04,19,09,00,10.30
2015,04,19,09,01,10.40
2015,04,19,09,02,10.50
2015,04,19,09,03,10.60
2015,04,19,09,04,10.70
2015,04,19,09,05,10.80
2015,04,19,09,06,10.80
2015,04,19,09,07,10.90
2015,04,19,09,08,11.00
2015,04,19,09,09,11.10
2015,04,19,09,10,11.20
2015,04,19,09,11,11.30
2015,04,19,09,12,11.40
2015,04,19,09,13,11.40
2015,04,19,09,14,11.40
2015,04,19,09,15,11.40
2015,04,19,09,16,11.50
2015,04,19,09,17,11.60
2015,04,19,09,18,11.60
2015,04,19,09,19,11.60
2015,04,19,09,20,11.70
2015,04,19,09,21,11.80
2015,04,19,09,22,11.80
2015,04,19,09,23,11.90
2015,04,19,09,24,12.00
2015,04,19,09,25,12.00
2015,04,19,09,26,12.10
2015,04,19,09,27,12.10
2015,04,19,09,28,12.20
2015,04,19,09,29,12.20
2015,04,19,09,30,12.20
2015,04,19,09,31,12.20
2015,04,19,09,32,12.20
2015,04,19,09,33,12.30
2015,04,19,09,34,12.30
2015,04,19,09,35,12.40
2015,04,19,09,36,12.50
2015,04,19,09,37,12.50
2015,04,19,09,38,12.60
2015,04,19,09,39,12.60
2015,04,19,09,40,12.70
2015,04,19,09,41,12.70
2015,04,19,09,42,12.70
2015,04,19,09,43,12.70
2015,04,19,09,44,12.80
2015,04,19,09,45,12.80
2015,04,19,09,46,12.80
2015,04,19,09,47,12.80
2015,04,19,09,48,12.90
2015,04,19,09,49,12.90
2015,04,19,09,50,13.00
2015,04,19,09,51,13.00
2015,04,19,09,52,13.10
2015,04,19,09,53,13.10
2015,04,19,09,54,13.10
2015,04,19,09,55,13.10
2015,04,19,09,56,13.10
2015,04,19,09,57,13.10
2015,04,19,09,58,13.10
2015,04,19,09,59,13.10
2015,04,19,10,00,13.10
2015,04,19,10,01,13.20
2015,04,19,10,02,13.20
2015,04,19,10,03,13.20
2015,04,19,10,04,13.30
2015,04,19,10,05,13.30
2015,04,19,10,06,13.30
2015,04,19,10,07,13.40
2015,04,19,10,08,13.50
2015,04,19,10,09,13.60
2015,04,19,10,10,13.70
2015,04,19,10,11,13.80
2015,04,19,10,12,13.90
2015,04,19,10,13,13.90
2015,04,19,10,14,14.00
2015,04,19,10,15,14.10
2015,04,19,10,16,14.10
2015,04,19,10,17,14.10
2015,04,19,10,18,14.00
2015,04,19,10,19,14.00
2015,04,19,10,20,14.00
2015,04,19,10,21,14.00
2015,04,19,10,22,14.10
2015,04,19,10,23,14.20
2015,04,19,10,24,14.20
2015,04,19,10,25,14.20
2015,04,19,10,26,14.20
2015,04,19,10,27,14.20
2015,04,19,10,28,14.20
2015,04,19,10,29,14.30
2015,04,19,10,30,14.30
2015,04,19,10,31,14.30
2015,04,19,10,32,14.40
2015,04,19,10,33,14.40
2015,04,19,10,34,14.40
2015,04,19,10,35,14.40
2015,04,19,10,36,14.50
2015,04,19,10,37,14.60
2015,04,19,10,38,14.60
2015,04,19,10,39,14.70
2015,04,19,10,40,14.70
2015,04,19,10,41,14.80
2015,04,19,10,42,14.80
2015,04,19,10,43,14.90
2015,04,19,10,44,15.00
2015,04,19,10,45,15.10
2015,04,19,10,46,15.20
2015,04,19,10,47,15.30
2015,04,19,10,48,15.30
2015,04,19,10,49,15.30
2015,04,19,10,50,15.30
2015,04,19,10,51,15.30
2015,04,19,10,52,15.30
2015,04,19,10,53,15.40
2015,04,19,10,54,15.50
2015,04,19,10,55,15.50
2015,04,19,10,56,15.50
2015,04,19,10,57,15.50
2015,04,19,10,58,15.50
2015,04,19,10,59,15.50
2015,04,19,11,00,15.60
2015,04,19,11,01,15.70
2015,04,19,11,02,15.70
2015,04,19,11,03,15.70
2015,04,19,11,04,15.60
2015,04,19,11,05,15.60
2015,04,19,11,06,15.60
2015,04,19,11,07,15.60
2015,04,19,11,08,15.60
2015,04,19,11,09,15.60
2015,04,19,11,10,15.60
2015,04,19,11,11,15.60
2015,04,19,11,12,15.70
2015,04,19,11,13,15.70
2015,04,19,11,14,15.80
2015,04,19,11,15,15.80
2015,04,19,11,16,15.90
2015,04,19,11,17,16.00
2015,04,19,11,18,16.20
2015,04,19,11,19,16.20
2015,04,19,11,20,16.30
2015,04,19,11,21,16.30
2015,04,19,11,22,16.30
2015,04,19,11,23,16.40
2015,04,19,11,24,16.40
2015,04,19,11,25,16.40
2015,04,19,11,26,16.40
2015,04,19,11,27,16.40
2015,04,19,11,28,16.40
2015,04,19,11,29,16.40
2015,04,19,11,30,16.40
2015,04,19,11,31,16.40
2015,04,19,11,32,16.40
2015,04,19,11,33,16.40
2015,04,19,11,34,16.30
2015,04,19,11,35,16.30
2015,04,19,11,36,16.30
2015,04,19,11,37,16.30
2015,04,19,11,38,16.30
2015,04,19,11,39,16.20
2015,04,19,11,40,16.30
2015,04,19,11,41,16.30
2015,04,19,11,42,16.40
2015,04,19,11,43,16.50
2015,04,19,11,44,16.50
2015,04,19,11,45,16.60
2015,04,19,11,46,16.60
2015,04,19,11,47,16.70
2015,04,19,11,48,16.80
2015,04,19,11,49,16.90
2015,04,19,11,50,16.90
2015,04,19,11,51,17.00
2015,04,19,11,52,17.10
2015,04,19,11,53,17.20
2015,04,19,11,54,17.30
2015,04,19,11,55,17.40
2015,04,19,11,56,17.40
2015,04,19,11,57,17.40
2015,04,19,11,58,17.40
2015,04,19,11,59,17.30
2015,04,19,12,00,17.30
2015,04,19,12,01,17.30
2015,04,19,12,02,17.30
2015,04,19,12,03,17.20
2015,04,19,12,04,17.20
2015,04,19,12,05,17.20
2015,04,19,12,06,17.20
2015,04,19,12,07,17.20
2015,04,19,12,08,17.30
2015,04,19,12,09,17.40
2015,04,19,12,10,17.50
2015,04,19,12,11,17.50
2015,04,19,12,12,17.60
2015,04,19,12,13,17.60
2015,04,19,12,14,17.60
2015,04,19,12,15,17.70
2015,04,19,12,16,17.70
2015,04,19,12,17,17.80
2015,04,19,12,18,17.80
2015,04,19,12,19,17.90
2015,04,19,12,20,17.80
2015,04,19,12,21,17.80
2015,04,19,12,22,17.80
2015,04,19,12,23,17.80
2015,04,19,12,24,17.80
2015,04,19,12,25,17.80
2015,04,19,12,26,17.90
2015,04,19,12,27,18.00
2015,04,19,12,28,18.00
2015,04,19,12,29,18.10
2015,04,19,12,30,18.00
2015,04,19,12,31,18.00
2015,04,19,12,32,18.00
2015,04,19,12,33,18.00
2015,04,19,12,34,17.90
2015,04,19,12,35,17.90
2015,04,19,12,36,17.90
2015,04,19,12,37,18.00
2015,04,19,12,38,18.10
2015,04,19,12,39,18.20
2015,04,19,12,40,18.20
2015,04,19,12,41,18.20
2015,04,19,12,42,18.20
2015,04,19,12,43,18.10
2015,04,19,12,44,18.00
2015,04,19,12,45,17.90
2015,04,19,12,46,17.90
2015,04,19,12,47,18.00
2015,04,19,12,48,18.00
2015,04,19,12,49,18.00
2015,04,19,12,50,18.00
2015,04,19,12,51,18.00
2015,04,19,12,52,17.90
2015,04,19,12,53,17.90
2015,04,19,12,54,17.80
2015,04,19,12,55,17.80
2015,04,19,12,56,17.80
2015,04,19,12,57,17.90
2015,04,19,12,58,18.00
2015,04,19,12,59,18.00
2015,04,19,13,00,18.00
2015,04,19,13,01,18.00
2015,04,19,13,02,18.00
2015,04,19,13,03,17.90
2015,04,19,13,04,17.90
2015,04,19,13,05,17.90
2015,04,19,13,06,17.90
2015,04,19,13,07,18.00
2015,04,19,13,08,18.00
2015,04,19,13,09,18.10
2015,04,19,13,10,18.10
2015,04,19,13,11,18.10
2015,04,19,13,12,18.10
2015,04,19,13,13,18.00
2015,04,19,13,14,18.00
2015,04,19,13,15,18.00
2015,04,19,13,16,18.00
2015,04,19,13,17,17.90
2015,04,19,13,18,17.80
2015,04,19,13,19,17.70
2015,04,19,13,20,17.70
2015,04,19,13,21,17.60
2015,04,19,13,22,17.70
2015,04,19,13,23,17.70
2015,04,19,13,24,17.70
2015,04,19,13,25,17.70
2015,04,19,13,26,17.80
2015,04,19,13,27,17.80
2015,04,19,13,28,17.80
2015,04,19,13,29,17.90
2015,04,19,13,30,17.90
2015,04,19,13,31,18.00
2015,04,19,13,32,18.10
2015,04,19,13,33,18.10
2015,04,19,13,34,18.20
2015,04,19,13,35,18.20
2015,04,19,13,36,18.20
2015,04,19,13,37,18.30
2015,04,19,13,38,18.30
2015,04,19,13,39,18.30
2015,04,19,13,40,18.30
2015,04,19,13,41,18.40
2015,04,19,13,42,18.40
2015,04,19,13,43,18.40
2015,04,19,13,44,18.40
2015,04,19,13,45,18.50
2015,04,19,13,46,18.50
2015,04,19,13,47,18.60
2015,04,19,13,48,18.70
2015,04,19,13,49,18.80
2015,04,19,13,50,18.90
2015,04,19,13,51,18.90
2015,04,19,13,52,18.90
2015,04,19,13,53,18.80
2015,04,19,13,54,18.80
2015,04,19,13,55,18.80
2015,04,19,13,56,18.80
2015,04,19,13,57,18.90
2015,04,19,13,58,18.90
2015,04,19,13,59,19.00
2015,04,19,14,00,19.00
2015,04,19,14,01,18.90
2015,04,19,14,02,18.90
2015,04,19,14,03,18.90
2015,04,19,14,04,18.80
2015,04,19,14,05,18.80
2015,04,19,14,06,18.80
2015,04,19,14,07,18.90
2015,04,19,14,08,19.00
2015,04,19,14,09,19.10
2015,04,19,14,10,19.20
2015,04,19,14,11,19.20
2015,04,19,14,12,19.20
2015,04,19,14,13,19.20
2015,04,19,14,14,19.20
2015,04,19,14,15,19.20
2015,04,19,14,16,19.20
2015,04,19,14,17,19.20
2015,04,19,14,18,19.20
2015,04,19,14,19,19.20
2015,04,19,14,20,19.20
2015,04,19,14,21,19.30
2015,04,19,14,22,19.30
2015,04,19,14,23,19.40
2015,04,19,14,24,19.50
2015,04,19,14,25,19.50
2015,04,19,14,26,19.60
2015,04,19,14,27,19.60
2015,04,19,14,28,19.60
2015,04,19,14,29,19.60
2015,04,19,14,30,19.60
2015,04,19,14,31,19.50
2015,04,19,14,32,19.50
2015,04,19,14,33,19.60
2015,04,19,14,34,19.60
2015,04,19,14,35,19.60
2015,04,19,14,36,19.60
2015,04,19,14,37,19.60
2015,04,19,14,38,19.60
2015,04,19,14,39,19.60
2015,04,19,14,40,19.60
2015,04,19,14,41,19.60
2015,04,19,14,42,19.50
2015,04,19,14,43,19.50
2015,04,19,14,44,19.40
2015,04,19,14,45,19.40
2015,04,19,14,46,19.50
2015,04,19,14,47,19.50
2015,04,19,14,48,19.60
2015,04,19,14,49,19.60
2015,04,19,14,50,19.70
2015,04,19,14,51,19.70
2015,04,19,14,52,19.70
2015,04,19,14,53,19.80
2015,04,19,14,54,19.80
2015,04,19,14,55,19.80
2015,04,19,14,56,19.80
2015,04,19,14,57,19.80
2015,04,19,14,58,19.90
2015,04,19,14,59,20.00
2015,04,19,15,00,20.00
2015,04,19,15,01,20.10
2015,04,19,15,02,20.20
2015,04,19,15,03,20.30
2015,04,19,15,04,20.40
2015,04,19,15,05,20.40
2015,04,19,15,06,20.40
2015,04,19,15,07,20.30
2015,04,19,15,08,20.30
2015,04,19,15,09,20.30
2015,04,19,15,10,20.40
2015,04,19,15,11,20.40
2015,04,19,15,12,20.40
2015,04,19,15,13,20.50
2015,04,19,15,14,20.50
2015,04,19,15,15,20.60
2015,04,19,15,16,20.60
2015,04,19,15,17,20.60
2015,04,19,15,18,20.60
2015,04,19,15,19,20.60
2015,04,19,15,20,20.50
2015,04,19,15,21,20.40
2015,04,19,15,22,20.30
2015,04,19,15,23,20.00
2015,04,19,15,24,19.60
2015,04,19,15,25,19.20
2015,04,19,15,26,18.90
2015,04,19,15,27,18.60
2015,04,19,15,28,18.40
2015,04,19,15,29,18.30
2015,04,19,15,30,18.20
2015,04,19,15,31,18.20
2015,04,19,15,32,18.00
2015,04,19,15,33,17.80
2015,04,19,15,34,17.70
2015,04,19,15,35,17.60
2015,04,19,15,36,17.60
2015,04,19,15,37,17.70
2015,04,19,15,38,17.70
2015,04,19,15,39,17.70
2015,04,19,15,40,17.60
2015,04,19,15,41,17.60
2015,04,19,15,42,17.60
2015,04,19,15,43,17.80
2015,04,19,15,44,17.90
2015,04,19,15,45,18.10
2015,04,19,15,46,18.20
2015,04,19,15,47,18.30
2015,04,19,15,48,18.40
2015,04,19,15,49,18.40
2015,04,19,15,50,18.40
2015,04,19,15,51,18.30
2015,04,19,15,52,18.20
2015,04,19,15,53,18.10
2015,04,19,15,54,18.10
2015,04,19,15,55,18.00
2015,04,19,15,56,17.90
2015,04,19,15,57,17.80
2015,04,19,15,58,17.80
2015,04,19,15,59,17.80
2015,04,19,16,00,17.90
2015,04,19,16,01,17.90
2015,04,19,16,02,18.00
2015,04,19,16,03,18.00
2015,04,19,16,04,17.90
2015,04,19,16,05,17.80
2015,04,19,16,06,17.80
2015,04,19,16,07,17.90
2015,04,19,16,08,17.90
2015,04,19,16,09,18.10
2015,04,19,16,10,18.20
2015,04,19,16,11,18.30
2015,04,19,16,12,18.30
2015,04,19,16,13,18.50
2015,04,19,16,14,18.50
2015,04,19,16,15,18.40
2015,04,19,16,16,18.40
2015,04,19,16,17,18.40
2015,04,19,16,18,18.30
2015,04,19,16,19,18.30
2015,04,19,16,20,18.30
2015,04,19,16,21,18.40
2015,04,19,16,22,18.40
2015,04,19,16,23,18.30
2015,04,19,16,24,18.00
2015,04,19,16,25,17.80
2015,04,19,16,26,17.60
2015,04,19,16,27,17.40
2015,04,19,16,28,17.40
2015,04,19,16,29,17.40
2015,04,19,16,30,17.40
2015,04,19,16,31,17.50
2015,04,19,16,32,17.60
2015,04,19,16,33,17.60
2015,04,19,16,34,17.70
2015,04,19,16,35,17.80
2015,04,19,16,36,17.90
2015,04,19,16,37,18.00
2015,04,19,16,38,18.00
2015,04,19,16,39,18.10
2015,04,19,16,40,18.10
2015,04,19,16,41,18.10
2015,04,19,16,42,18.00
2015,04,19,16,43,18.00
2015,04,19,16,44,17.90
2015,04,19,16,45,17.90
2015,04,19,16,46,17.80
2015,04,19,16,47,17.80
2015,04,19,16,48,17.70
2015,04,19,16,49,17.70
2015,04,19,16,50,17.70
2015,04,19,16,51,17.60
2015,04,19,16,52,17.60
2015,04,19,16,53,17.50
2015,04,19,16,54,17.50
2015,04,19,16,55,17.40
2015,04,19,16,56,17.40
2015,04,19,16,57,17.40
2015,04,19,16,58,17.40
2015,04,19,16,59,17.40
2015,04,19,17,00,17.40
2015,04,19,17,01,17.30
2015,04,19,17,02,17.30
2015,04,19,17,03,17.40
2015,04,19,17,04,17.40
2015,04,19,17,05,17.50
2015,04,19,17,06,17.50
2015,04,19,17,07,17.50
2015,04,19,17,08,17.60
2015,04,19,17,09,17.60
2015,04,19,17,10,17.50
2015,04,19,17,11,17.50
2015,04,19,17,12,17.40
2015,04,19,17,13,17.40
2015,04,19,17,14,17.20
2015,04,19,17,15,17.00
2015,04,19,17,16,16.90
2015,04,19,17,17,16.80
2015,04,19,17,18,16.80
2015,04,19,17,19,16.80
2015,04,19,17,20,16.80
2015,04,19,17,21,16.70
2015,04,19,17,22,16.70
2015,04,19,17,23,16.70
2015,04,19,17,24,16.70
2015,04,19,17,25,16.60
2015,04,19,17,26,16.60
2015,04,19,17,27,16.50
2015,04,19,17,28,16.50
2015,04,19,17,29,16.40
2015,04,19,17,30,16.50
2015,04,19,17,31,16.60
2015,04,19,17,32,16.60
2015,04,19,17,33,16.60
2015,04,19,17,34,16.50
2015,04,19,17,35,16.50
2015,04,19,17,36,16.40
2015,04,19,17,37,16.40
2015,04,19,17,38,16.40
2015,04,19,17,39,16.50
2015,04,19,17,40,16.60
2015,04,19,17,41,16.70
2015,04,19,17,42,16.80